Regional Weather Roundup
Issued by NWS

Home | Current Version | Previous Version | Graphics & Text | Print | Product List | Glossary On
Versions: 1 2 3 4 5 6 7 8 9 10 11 12 13 14 15 16 17 18 19 20 21 22 23 24 25 26 27 28 29 30 31 32 33 34 35 36 37 38 39 40 41 42 43 44 45 46 47 48 49 50
000
ASUS43 KDTX 282201
RWRMI
MICHIGAN HOURLY REGIONAL WEATHER ROUNDUP
NATIONAL WEATHER SERVICE DETROIT/PONTIAC MI
600 PM EDT FRI AUG 28 2015

NOTE: "FAIR" INDICATES FEW OR NO CLOUDS BELOW 12,000 FEET WITH NO
SIGNIFICANT WEATHER AND/OR OBSTRUCTION TO VISIBILITY.

MIZ047>049-052>055-059>063-066>070-074>076-081>083-282300-
SOUTHEAST LOWER MICHIGAN

CITY           SKY/WX    TMP DP  RH WIND       PRES   REMARKS
ADRIAN         PTSUNNY   76  57  51 SW6       30.14F
ALMA           CLOUDY    73  60  65 CALM      30.12S
ANN ARBOR      PTSUNNY   74  59  59 S6        30.13F
BAD AXE        MOSUNNY   71  56  60 SW5       30.14F
CARO           CLOUDY    71  59  65 CALM      30.13S
DETROIT CITY   CLOUDY    74  56  53 W6        30.14S
DETROIT        PTSUNNY   72  58  61 SE7       30.15S
FLINT          CLOUDY    76  56  49 SW7       30.13S
GROSSE ILE     PTSUNNY   72  59  64 SE5       30.14S
HILLSDALE      CLOUDY    74  62  66 S3        30.14F
HOWELL         CLOUDY    74  55  50 SW3       30.13F

CITY           SKY/WX    TMP DP  RH WIND       PRES   REMARKS
JACKSON        CLOUDY    74  61  63 W3        30.13F
LAMBERTVILLE   PTSUNNY   75  60  60 CALM      30.15S
LANSING        CLOUDY    73  58  59 SW8       30.12F
LAPEER         FAIR      73  57  56 SW7       30.14S
MASON          CLOUDY    74  57  56 SW3       30.13F
MT. CLEMENS    CLOUDY    70  61  71 SE7       30.13S
PONTIAC        CLOUDY    73  57  57 S5        30.13F
PORT HOPE        N/A     69  61  75 CALM      30.13S
PORT HURON     PTSUNNY   72  57  60 S6        30.15S
TRI CITIES     CLOUDY    74  58  57 SW5       30.12F
MIDLAND        FAIR      74  58  57 S3        30.11S
TROY           PTSUNNY   76  55  48 SW5       30.15S
SAGINAW HB     CLOUDY    73  61  64 SW3       30.11F
$$
MIZ043>046-050>051-056>058-064>065-071>073-077>080-282300-
SOUTHWEST LOWER MICHIGAN

CITY           SKY/WX    TMP DP  RH WIND       PRES   REMARKS
BATTLE CREEK   CLOUDY    75  61  61 W5        30.12F
BENTON HARBOR  CLOUDY    73  61  65 CALM      30.09F
BIG RAPIDS     CLOUDY    71  58  64 SW5       30.11S
COLDWATER      CLOUDY    73  62  67 S3        30.13S
FREMONT        FAIR      71  58  64 SW5       30.11S
HOLLAND        CLOUDY    73  60  63 S5        30.11F
GRAND RAPIDS   CLOUDY    74  60  61 SW7       30.11F
IONIA          FAIR      74  59  58 SW6       30.11S
KALAMAZOO      CLOUDY    76  60  57 S3        30.11F
LUDINGTON      CLOUDY    71  63  76 SW6       30.11S
MARSHALL       CLOUDY    74  61  63 SW3       30.12S
MOUNT PLEASANT CLOUDY    75  58  54 SW5       30.10F
MUSKEGON       CLOUDY    72  60  66 S3        30.11F
SOUTH HAVEN    CLOUDY    73  59  63 CALM      30.10F
$$
MIZ016>042-282300-
NORTHERN LOWER MICHIGAN

CITY           SKY/WX    TMP DP  RH WIND       PRES   REMARKS
ALPENA         MOSUNNY   74  55  51 S7        30.09S
BEAVER ISLAND  PTSUNNY   69  59  69 SW8G22    30.05S
BELLAIRE       PTSUNNY   74  56  53 S3        30.07S
CADILLAC       PTSUNNY   71  58  62 SW8       30.10F
CHARLEVOIX     PTSUNNY   70  61  72 SW7       30.09F
FRANKFORT      CLOUDY    69  61  76 SW8       30.09S
GAYLORD        PTSUNNY   72  55  55 SW10      30.10F
GRAYLING       PTSUNNY   73  56  55 S6        30.11F
HARBOR SPRINGS PTSUNNY   70  62  73 W3        30.06F
HOUGHTON LAKE  PTSUNNY   71  57  61 S7        30.11F
MANISTEE       CLOUDY    70  57  64 S5        30.10S
OSCODA         MOSUNNY   70  55  58 S8        30.11S
PELLSTON       PTSUNNY   72  59  63 S10       30.06F
ROGERS CITY    MOSUNNY   75  56  52 SW9       30.08S
TRAVERSE CITY  CLOUDY    75  58  55 SW7       30.06F
$$
MIZ007>008-015-282300-
EASTERN UPPER MICHIGAN

CITY           SKY/WX    TMP DP  RH WIND       PRES   REMARKS
KINROSS        PTSUNNY   72  57  60 SW9       30.05S
MACKINAC ISLAN PTSUNNY   68  58  71 SW7       30.05F
NEWBERRY       PTSUNNY   69  58  69 SW15G24   30.03R
S. S. MARIE    CLOUDY    71  57  61 S9        30.03F
MUNISING         N/A     74  61  63 S9        29.98S
$$
MIZ004>006-011>014-085-282300-
CENTRAL UPPER MICHIGAN

CITY           SKY/WX    TMP DP  RH WIND       PRES   REMARKS
MANISTIQUE     PTSUNNY   66  61  84 S10G17    30.03S
ESCANABA       CLOUDY    68  61  77 S14G24    30.00S
MENOMINEE      CLOUDY    70  61  73 SW12      30.03R
SAWYER-GWINN   CLOUDY    73  63  68 SW12      30.00F
$$
MIZ001>003-009>011-084-282300-
WESTERN UPPER MICHIGAN

CITY           SKY/WX    TMP DP  RH WIND       PRES   REMARKS
IRON MOUNTAIN  CLOUDY    74  63  68 SW9       30.01R
HOUGHTON       CLOUDY    70  63  78 W6        29.95S
COPPER HARBOR    N/A     73  62  68 W7        29.94S
IRONWOOD       PTSUNNY   77  64  65 SW10G20   29.94F
$$

ABBREVIATIONS USED IN REMARKS
   TC - TEMPERATURE IN CELSIUS
  WCI - WIND CHILL INDEX
   HX - HEAT INDEX
  VSB - VISIBILITY



USA.gov is the U.S. government's official web portal to all federal, state and local government web resources and services.